Hillsdale, MI

9:23 AM EDT on May 26, 2017 (GMT -0400)
Hillsdale Municipal

Weather History for KJYM - January, 2014

Change the Weather History Date:

Saturday, January 11, 2014

  Actual Average Record
Temperature  
Mean Temperature 36 °F -  
Max Temperature 41 °F 27 °F 57 °F (2013)
Min Temperature 32 °F 11 °F -18 °F (1984)
Degree Days  
Heating Degree Days 28    
Moisture  
Dew Point 37 °F    
Average Humidity 97    
Maximum Humidity 100    
Minimum Humidity 87    
Precipitation  
Precipitation 0.00 in - - ()
Sea Level Pressure  
Sea Level Pressure 29.48 in    
Wind  
Wind Speed 11 mph (WSW)    
Max Wind Speed 25 mph    
Max Gust Speed 32 mph    
Visibility 4 miles    
Events Fog , Rain , Snow    
Averages and records for this station are not official NWS values.
T = Trace of Precipitation, MM = Missing Value Source: NWS Daily Summary

Daily Weather History Graph

Daily Weather History Graph

Search for Another Location

Airport or City:

Trip Planner

Search our weather history database for the weather conditions in past years. The results will help you decide how hot, cold, wet, or windy it might be!

Date:

Astronomy

Jan. 11, 2014 Rise Set
Actual Time 8:05 AM EST 5:27 PM EST
Civil Twilight 7:34 AM EST 5:58 PM EST
Nautical Twilight 6:59 AM EST 6:33 PM EST
Astronomical Twilight 6:25 AM EST 7:07 PM EST
Moon 2:12 PM EST (1/11) 4:08 AM EST (1/11)
Length of Visible Light 10h 24m
Length of Day
9h 22m
Waxing Gibbous, 83% of the Moon is Illuminated
Jan 11
Waxing Gibbous
Jan 15
Full
Jan 24
Last Quarter
Jan 30
New
Feb 6
First Quarter

Hourly Weather History & Observations

Time (EST) Temp. Windchill Dew Point Humidity Pressure Visibility Wind Dir Wind Speed Gust Speed Precip Events Conditions
12:14 AM 38.7 °F 31.8 °F 38.7 °F 100% 29.61 in 0.8 mi South 10.4 mph - N/A   Drizzle
12:35 AM 38.8 °F 32.6 °F 38.8 °F 100% 29.61 in 0.8 mi South 9.2 mph - N/A Rain Light Rain
12:55 AM 39.4 °F 33.2 °F 39.2 °F 99% 29.59 in 1.2 mi South 9.2 mph - N/A Rain Rain
1:14 AM 39.7 °F 33.2 °F 39.7 °F 100% 29.57 in 1.8 mi South 10.4 mph - N/A   Drizzle
1:35 AM 40.5 °F 35.1 °F 40.3 °F 99% 29.57 in 1.2 mi South 8.1 mph - N/A   Light Drizzle
1:55 AM 41.2 °F 35.0 °F 41.2 °F 100% 29.55 in 0.5 mi South 10.4 mph 16.1 mph N/A Fog Fog
2:14 AM 41.4 °F 35.2 °F 41.4 °F 100% 29.55 in 0.2 mi SSW 10.4 mph - N/A   Light Drizzle
2:35 AM 41.2 °F 35.0 °F 41.2 °F 100% 29.55 in 0.2 mi SSW 10.4 mph - N/A   Overcast
2:54 AM 41.4 °F 35.2 °F 41.4 °F 100% 29.55 in 0.2 mi SSW 10.4 mph 16.1 mph N/A Rain Light Rain
3:14 AM 41.2 °F 35.5 °F 41.2 °F 100% 29.54 in 0.2 mi South 9.2 mph - N/A   Light Drizzle
3:35 AM 40.6 °F 34.8 °F 40.6 °F 100% 29.52 in 0.2 mi SSW 9.2 mph - N/A   Light Drizzle
3:54 AM 40.6 °F 36.0 °F 40.6 °F 100% 29.51 in 0.2 mi South 6.9 mph - N/A Fog Fog
4:15 AM 40.6 °F 34.3 °F 40.5 °F 99% 29.50 in 0.2 mi South 10.4 mph 16.1 mph N/A Fog Fog
4:35 AM 40.5 °F 35.8 °F 40.5 °F 100% 29.49 in 0.2 mi South 6.9 mph - N/A Fog Fog
4:54 AM 40.6 °F 34.8 °F 40.6 °F 100% 29.47 in 0.2 mi SSW 9.2 mph - N/A Fog Fog
5:15 AM 40.6 °F 35.4 °F 40.6 °F 100% 29.47 in 0.2 mi South 8.1 mph - N/A Fog Fog
5:34 AM 40.8 °F 35.6 °F 40.8 °F 100% 29.46 in 0.2 mi South 8.1 mph - N/A Fog Fog
5:54 AM 40.8 °F 35.6 °F 40.8 °F 100% 29.44 in 0.2 mi South 8.1 mph - N/A Fog Fog
6:15 AM 40.5 °F 35.8 °F 40.5 °F 100% 29.43 in 0.2 mi South 6.9 mph - N/A   Overcast
6:34 AM 40.6 °F 34.8 °F 40.6 °F 100% 29.42 in 0.2 mi South 9.2 mph - N/A   Overcast
6:55 AM 40.5 °F 35.8 °F 40.5 °F 100% 29.42 in 0.2 mi South 6.9 mph - N/A Fog Fog
7:14 AM 41.0 °F 35.2 °F 41.0 °F 100% 29.41 in 0.2 mi South 9.2 mph - N/A   Overcast
7:35 AM 41.0 °F 36.4 °F 41.0 °F 100% 29.40 in 0.5 mi SSW 6.9 mph - N/A Rain Rain
7:54 AM 40.6 °F 36.0 °F 40.5 °F 99% 29.40 in 0.8 mi South 6.9 mph - N/A Rain Rain
8:15 AM 40.6 °F 36.0 °F 40.6 °F 100% 29.39 in 1.2 mi SSW 6.9 mph - N/A Rain Heavy Rain
8:35 AM 41.2 °F 36.0 °F 41.2 °F 100% 29.38 in 1.8 mi SSW 8.1 mph - N/A   Light Drizzle
8:54 AM 40.6 °F 35.4 °F 40.6 °F 100% 29.38 in 1.2 mi SSW 8.1 mph - N/A   Overcast
9:15 AM 41.0 °F 36.4 °F 41.0 °F 100% 29.38 in 0.5 mi SW 6.9 mph - N/A Rain Light Rain
9:35 AM 40.6 °F 36.7 °F 40.6 °F 100% 29.38 in 0.8 mi WSW 5.8 mph - N/A   Overcast
9:54 AM 41.0 °F 35.2 °F 41.0 °F 100% 29.38 in 1.0 mi WSW 9.2 mph - N/A Rain Rain
10:15 AM 41.4 °F 34.7 °F 41.4 °F 100% 29.38 in 10.0 mi WSW 11.5 mph 17.3 mph N/A   Overcast
10:34 AM 40.8 °F 34.5 °F 40.8 °F 100% 29.37 in 10.0 mi West 10.4 mph 16.1 mph N/A   Overcast
10:54 AM 40.6 °F 34.3 °F 40.6 °F 100% 29.38 in 2.0 mi WSW 10.4 mph 17.3 mph N/A   Overcast
11:14 AM 40.3 °F 33.4 °F 40.3 °F 100% 29.38 in 1.2 mi WSW 11.5 mph - N/A   Overcast
11:34 AM 39.9 °F 35.1 °F 39.9 °F 100% 29.37 in 2.5 mi West 6.9 mph 17.3 mph N/A   Overcast
11:55 AM 39.6 °F 31.7 °F 39.6 °F 100% 29.36 in 0.2 mi WSW 13.8 mph 19.6 mph N/A Fog Fog
12:14 PM 39.2 °F 31.2 °F 39.2 °F 100% 29.36 in 0.5 mi West 13.8 mph 19.6 mph N/A Fog Fog
12:35 PM 38.1 °F 28.4 °F 38.1 °F 100% 29.35 in 1.2 mi West 18.4 mph 27.6 mph N/A   Overcast
12:54 PM 37.8 °F 30.7 °F 37.8 °F 100% 29.35 in 1.8 mi West 10.4 mph 23.0 mph N/A   Overcast
1:14 PM 37.0 °F 28.1 °F 37.0 °F 100% 29.36 in 5.0 mi West 15.0 mph 23.0 mph N/A   Overcast
1:35 PM 36.0 °F 26.7 °F 36.0 °F 100% 29.37 in 7.0 mi West 15.0 mph 23.0 mph N/A   Overcast
1:54 PM 35.4 °F 26.8 °F 35.4 °F 100% 29.37 in 7.0 mi West 12.7 mph 19.6 mph N/A   Overcast
2:15 PM 35.1 °F 24.8 °F 35.1 °F 100% 29.38 in 4.0 mi West 17.3 mph 32.2 mph N/A   Overcast
2:35 PM 34.9 °F 25.7 °F 34.9 °F 100% 29.39 in 3.0 mi West 13.8 mph 23.0 mph N/A Snow Light Snow
2:54 PM 34.3 °F 25.0 °F 34.3 °F 100% 29.40 in 7.0 mi West 13.8 mph 24.2 mph N/A   Overcast
3:15 PM 34.3 °F 25.5 °F 34.3 °F 100% 29.41 in 7.0 mi West 12.7 mph 21.9 mph N/A   Overcast
3:35 PM 34.3 °F 24.6 °F 34.3 °F 100% 29.42 in 5.0 mi West 15.0 mph 26.5 mph N/A   Overcast
3:54 PM 34.3 °F 23.9 °F 34.3 °F 100% 29.43 in 10.0 mi West 17.3 mph 20.7 mph N/A   Overcast
4:15 PM 34.3 °F 23.2 °F 34.3 °F 100% 29.44 in 7.0 mi West 19.6 mph 27.6 mph N/A   Overcast
4:34 PM 34.2 °F 24.0 °F 33.4 °F 97% 29.46 in 7.0 mi West 16.1 mph 24.2 mph N/A   Overcast
4:54 PM 34.0 °F 24.6 °F 33.4 °F 98% 29.47 in 10.0 mi West 13.8 mph 20.7 mph N/A   Overcast
5:15 PM 34.0 °F 23.4 °F 33.4 °F 98% 29.49 in 7.0 mi West 17.3 mph 24.2 mph N/A   Overcast
5:34 PM 33.6 °F 22.2 °F 33.3 °F 99% 29.49 in 5.0 mi West 19.6 mph 26.5 mph N/A   Overcast
5:55 PM 33.6 °F 22.6 °F 33.3 °F 99% 29.50 in 4.0 mi West 18.4 mph 24.2 mph N/A   Overcast
6:15 PM 33.6 °F 24.1 °F 32.4 °F 95% 29.51 in 7.0 mi West 13.8 mph 24.2 mph N/A   Overcast
6:34 PM 33.6 °F 22.6 °F 32.2 °F 94% 29.52 in 7.0 mi West 18.4 mph 25.3 mph N/A   Overcast
6:55 PM 33.3 °F 21.8 °F 31.5 °F 93% 29.53 in 10.0 mi West 19.6 mph 27.6 mph N/A   Overcast
7:14 PM 33.3 °F 23.2 °F 30.4 °F 89% 29.54 in 10.0 mi West 15.0 mph 26.5 mph N/A   Overcast
7:34 PM 33.3 °F 24.1 °F 30.2 °F 89% 29.56 in 10.0 mi West 12.7 mph 20.7 mph N/A   Overcast
7:55 PM 33.3 °F 23.2 °F 30.6 °F 90% 29.56 in 10.0 mi West 15.0 mph - N/A   Overcast
8:14 PM 33.3 °F 21.2 °F 29.8 °F 87% 29.57 in 10.0 mi West 21.9 mph 27.6 mph N/A   Overcast
8:34 PM 33.1 °F 22.6 °F 29.8 °F 88% 29.58 in 10.0 mi West 16.1 mph 23.0 mph N/A   Overcast
8:55 PM 33.1 °F 24.4 °F 29.5 °F 87% 29.59 in 10.0 mi West 11.5 mph 25.3 mph N/A   Overcast
9:14 PM 33.1 °F 23.4 °F 29.5 °F 87% 29.60 in 10.0 mi West 13.8 mph 26.5 mph N/A   Overcast
9:35 PM 33.1 °F 23.9 °F 29.8 °F 88% 29.61 in 7.0 mi West 12.7 mph 23.0 mph N/A   Overcast
9:55 PM 32.5 °F 21.9 °F 30.2 °F 91% 29.62 in 7.0 mi West 16.1 mph 23.0 mph N/A   Overcast
10:14 PM 32.5 °F 21.5 °F 30.6 °F 92% 29.63 in 7.0 mi West 17.3 mph 23.0 mph N/A   Overcast
10:35 PM 32.9 °F 19.8 °F 30.4 °F 90% 29.63 in 7.0 mi West 25.3 mph 32.2 mph N/A   Overcast
10:55 PM 32.5 °F 21.5 °F 30.0 °F 90% 29.64 in 7.0 mi West 17.3 mph 23.0 mph N/A   Overcast
11:14 PM 32.5 °F 21.9 °F 30.6 °F 92% 29.65 in 5.0 mi West 16.1 mph 24.2 mph N/A   Overcast
11:35 PM 32.4 °F 23.0 °F 30.7 °F 94% 29.65 in 4.0 mi West 12.7 mph 19.6 mph N/A   Overcast
11:55 PM 32.4 °F 22.5 °F 30.9 °F 94% 29.66 in 4.0 mi West 13.8 mph 21.9 mph N/A   Overcast